Regional Weather Roundup
Issued by NWS State College, PA

Home | Current Version | Previous Version | Graphics & Text | Print | Product List | Glossary On
Versions: 1 2 3 4 5 6 7 8 9 10 11 12 13 14 15 16 17 18 19 20 21 22 23 24 25 26 27 28 29 30 31 32 33 34 35 36 37 38 39 40 41 42 43 44 45 46 47 48 49 50
000
ASUS41 KCTP 220303
RWRCTP

REGIONAL WEATHER ROUNDUP
NATIONAL WEATHER SERVICE STATE COLLEGE PA
1100 PM EDT SUN SEP 21 2014

Note: "fair" indicates few or no clouds below 12,000 feet with no
significant weather and/or obstructions to visibility.

* = STATION THAT DOES NOT REPORT PRECIPITATION /E.G. RAIN...SNOW...ETC/
    THUNDER OR FOG.

PAZ002>004-007>009-013>016-020>023-029>032-220400-
WESTERN PENNSYLVANIA

CITY           SKY/WX    TMP DP  RH WIND       PRES   REMARKS
ERIE           CLOUDY    58  49  72 NW17G33   29.82R
MEADVILLE      CLOUDY    53  50  89 W10       29.85R
FRANKLIN*      CLOUDY    54  48  82 W13G20    29.85R
NEW CASTLE     NOT AVBL
BEAVER COUNTY  NOT AVBL
BUTLER*        CLOUDY    55  48  76 W8G18     29.88R
PITTSBURGH INT PTCLDY    59  49  69 W14       29.86R
PITTSBURGH     CLEAR     60  46  59 W12G18    29.85R
INDIANA*       PTCLDY    61  48  63 W13G25    29.87R
LATROBE        PTCLDY    59  50  72 SW7       29.86R
WASHINGTON CO* CLEAR     57  46  67 W6        29.88R
$$

PAZ004>006-010>012-017>019-024>028-033>037-041-042-045-046-049>053-220400-
CENTRAL PENNSYLVANIA

CITY           SKY/WX    TMP DP  RH WIND       PRES   REMARKS
BRADFORD       MOCLDY    55  49  80 W13G21    29.76R
DUBOIS         PTCLDY    56  50  80 W17G26    29.79R
CLEARFIELD     PTCLDY    60  50  69 W14G22    29.78R
JOHNSTOWN      CLEAR     56  46  69 W16G23    29.83R
ALTOONA        CLEAR     60  49  66 W6        29.80R
STATE COLLEGE  CLEAR     62  53  72 W8G16     29.76R
WILLIAMSPORT   RAIN      62  59  90 NW7       29.70R
SELINSGROVE    PTCLDY    67  58  72 W7        29.72R
FT INDIANTOWN  MOCLDY    71  63  77 W12       29.70R
CAPITAL CITY   LGT RAIN  69  61  75 W7        29.71R
HARRISBURG     PTCLDY    70  61  73 W9        29.70R
YORK           PTCLDY    67  62  84 CALM      29.71R
$$

PAZ038>040-043-044-047-048-054-055-060>062-067>071-220400-
EASTERN PENNSYLVANIA

CITY           SKY/WX    TMP DP  RH WIND       PRES   REMARKS
SCRANTON       CLOUDY    63  60  90 CALM      29.69R
MOUNT POCONO   LGT RAIN  61 N/A N/A W8        29.70S
ALLENTOWN      CLOUDY    67  63  87 SW7       29.65S
QUAKERTOWN*    MOCLDY    66  64  94 SW6       29.67F
READING        MOCLDY    67  61  81 SW7       29.67R
LANCASTER      MOCLDY    64  61  90 W5        29.69R
COATESVILLE    CLOUDY    66  63  88 W3        29.70S
POTTSTOWN      CLOUDY    67  60  78 CALM      29.68F
BLUE BELL      MOCLDY    68  61  77 CALM      29.67S
DOYLESTOWN     LGT RAIN  68  65  90 SW5       29.65S
WILLOW GROVE   NOT AVBL
NORTH PHILA    CLOUDY    73  62  68 W16G26    29.69R
PHILADELPHIA   MOCLDY    73  63  70 W6        29.69R
$$


USA.gov is the U.S. government's official web portal to all federal, state and local government web resources and services.